Athens, OH

8:31 AM EDT on March 23, 2017 (GMT -0400)
Ohio University

Weather History for KUNI - October, 2011

Change the Weather History Date:

Thursday, October 20, 2011

  Actual Average (KLHQ) Record (KLHQ)
Temperature  
Mean Temperature 43 °F -  
Max Temperature 46 °F 59 °F 86 °F (1953)
Min Temperature 40 °F 36 °F 21 °F (1972)
Degree Days  
Heating Degree Days 22    
Moisture  
Dew Point 39 °F    
Average Humidity 84    
Maximum Humidity 88    
Minimum Humidity 75    
Precipitation  
Precipitation 0.24 in - - ()
Sea Level Pressure  
Sea Level Pressure 29.47 in    
Wind  
Wind Speed 13 mph (SW)    
Max Wind Speed 22 mph    
Max Gust Speed 34 mph    
Visibility 10 miles    
Events Rain    
Averages and records for this station are not official NWS values.
T = Trace of Precipitation, MM = Missing Value Source: NWS Daily Summary

Daily Weather History Graph

Daily Weather History Graph

Search for Another Location

Airport or City:

Trip Planner

Search our weather history database for the weather conditions in past years. The results will help you decide how hot, cold, wet, or windy it might be!

Date:

Astronomy

Oct. 20, 2011 Rise Set
Actual Time 7:43 AM EDT 6:43 PM EDT
Civil Twilight 7:16 AM EDT 7:10 PM EDT
Nautical Twilight 6:45 AM EDT 7:41 PM EDT
Astronomical Twilight 6:14 AM EDT 8:12 PM EDT
Moon 12:30 AM EDT (10/20) 2:49 PM EDT (10/20)
Length of Visible Light 11h 54m
Length of Day
10h 59m
Last Quarter, 44% of the Moon is Illuminated
Oct 20
Last Quarter
Oct 26
New
Nov 2
First Quarter
Nov 10
Full
Nov 18
Last Quarter

Hourly Weather History & Observations

Time (EDT) Temp. Windchill Dew Point Humidity Pressure Visibility Wind Dir Wind Speed Gust Speed Precip Events Conditions
12:15 AM 46.2 °F 42.2 °F 43.0 °F 88% 29.32 in 10.0 mi SSW 8.1 mph 18.4 mph 0.01 in   Overcast
12:55 AM 46.2 °F 40.8 °F 42.6 °F 87% 29.32 in 10.0 mi SSW 11.5 mph 19.6 mph 0.03 in   Overcast
1:15 AM 46.4 °F 41.5 °F 42.3 °F 85% 29.32 in 10.0 mi SSW 10.4 mph 16.1 mph 0.01 in   Overcast
1:35 AM 46.2 °F 40.1 °F 42.1 °F 85% 29.32 in 10.0 mi SSW 13.8 mph 18.4 mph 0.02 in   Overcast
1:55 AM 46.2 °F 41.2 °F 41.5 °F 84% 29.32 in 10.0 mi SSW 10.4 mph 19.6 mph 0.03 in   Overcast
2:35 AM 46.4 °F 41.9 °F 40.3 °F 79% 29.32 in 10.0 mi SW 9.2 mph 19.6 mph 0.02 in   Overcast
2:55 AM 46.0 °F 40.6 °F 39.2 °F 77% 29.32 in 10.0 mi SW 11.5 mph 24.2 mph 0.03 in   Overcast
3:15 AM 45.7 °F 39.5 °F 38.3 °F 75% 29.32 in 10.0 mi SW 13.8 mph 29.9 mph N/A   Overcast
3:35 AM 45.1 °F 38.1 °F 38.1 °F 76% 29.33 in 10.0 mi SSW 16.1 mph 24.2 mph 0.01 in   Overcast
3:55 AM 44.6 °F 37.2 °F 38.1 °F 78% 29.33 in 10.0 mi SSW 17.3 mph 31.1 mph 0.02 in   Overcast
4:15 AM 44.1 °F 36.8 °F 37.6 °F 78% 29.33 in 10.0 mi SW 16.1 mph 26.5 mph 0.01 in   Overcast
4:35 AM 43.7 °F 36.9 °F 37.4 °F 78% 29.34 in 10.0 mi SSW 13.8 mph 23.0 mph 0.02 in   Overcast
4:55 AM 43.3 °F 35.8 °F 37.6 °F 80% 29.34 in 7.0 mi SSW 16.1 mph 23.0 mph 0.03 in   Overcast
5:15 AM 43.0 °F 36.4 °F 37.8 °F 82% 29.35 in 10.0 mi SSW 12.7 mph 21.9 mph 0.01 in   Light Drizzle
5:35 AM 43.0 °F 36.8 °F 37.8 °F 82% 29.35 in 10.0 mi SSW 11.5 mph 18.4 mph 0.01 in Rain Light Rain
6:35 AM 42.1 °F 36.1 °F 37.9 °F 85% 29.35 in 10.0 mi SW 10.4 mph 23.0 mph 0.01 in   Light Drizzle
6:55 AM 42.1 °F 34.9 °F 37.6 °F 84% 29.36 in 10.0 mi SW 13.8 mph 24.2 mph 0.01 in Rain Light Rain
7:15 AM 41.9 °F 35.4 °F 37.2 °F 83% 29.36 in 10.0 mi SW 11.5 mph 24.2 mph 0.01 in   Light Drizzle
7:35 AM 41.9 °F 34.3 °F 36.9 °F 82% 29.37 in 10.0 mi SSW 15.0 mph 26.5 mph 0.01 in   Drizzle
7:55 AM 41.5 °F 34.6 °F 36.9 °F 83% 29.38 in 10.0 mi SW 12.7 mph 20.7 mph 0.02 in   Drizzle
8:15 AM 41.2 °F 34.1 °F 37.0 °F 85% 29.39 in 10.0 mi SW 12.7 mph 23.0 mph N/A   Drizzle
8:35 AM 41.0 °F 32.8 °F 37.2 °F 86% 29.40 in 10.0 mi SSW 16.1 mph 23.0 mph N/A Rain Light Rain
8:55 AM 40.6 °F 33.8 °F 36.9 °F 86% 29.41 in 10.0 mi SSW 11.5 mph 25.3 mph N/A Rain Rain
9:15 AM 40.5 °F 32.8 °F 36.9 °F 87% 29.41 in 10.0 mi SW 13.8 mph 34.5 mph 0.01 in Rain Light Rain
9:35 AM 40.1 °F 32.4 °F 36.7 °F 88% 29.42 in 10.0 mi SSW 13.8 mph 26.5 mph 0.01 in Rain Light Rain
9:55 AM 40.1 °F 32.7 °F 36.7 °F 88% 29.43 in 10.0 mi SSW 12.7 mph 24.2 mph 0.02 in Rain Light Rain
10:15 AM 40.3 °F 33.0 °F 36.9 °F 88% 29.44 in 10.0 mi SSW 12.7 mph 20.7 mph N/A Rain Light Rain
10:35 AM 40.6 °F 33.0 °F 37.2 °F 88% 29.44 in 10.0 mi SSW 13.8 mph 24.2 mph N/A   Light Drizzle
10:55 AM 41.0 °F 33.1 °F 37.4 °F 87% 29.45 in 10.0 mi SSW 15.0 mph 23.0 mph N/A   Light Drizzle
11:15 AM 41.4 °F 33.6 °F 37.4 °F 86% 29.46 in 10.0 mi SW 15.0 mph 24.2 mph N/A Rain Light Rain
12:15 PM 42.1 °F 33.9 °F 38.1 °F 86% 29.49 in 10.0 mi SW 17.3 mph 27.6 mph N/A Rain Light Rain
12:35 PM 42.1 °F 33.9 °F 38.1 °F 86% 29.51 in 7.0 mi SW 17.3 mph 28.8 mph N/A Rain Light Rain
12:55 PM 41.9 °F 32.6 °F 38.1 °F 86% 29.52 in 10.0 mi WSW 21.9 mph 28.8 mph N/A   Drizzle
1:15 PM 41.9 °F 33.1 °F 38.1 °F 86% 29.53 in 10.0 mi SW 19.6 mph 27.6 mph 0.01 in   Light Drizzle
1:35 PM 42.1 °F 34.5 °F 38.1 °F 86% 29.53 in 10.0 mi SW 15.0 mph 24.2 mph 0.01 in   Light Drizzle
1:55 PM 42.3 °F 35.5 °F 38.3 °F 86% 29.54 in 10.0 mi SW 12.7 mph 23.0 mph 0.01 in   Light Drizzle
2:15 PM 42.8 °F 34.8 °F 38.5 °F 85% 29.55 in 10.0 mi SW 17.3 mph 26.5 mph N/A   Light Drizzle
2:35 PM 43.0 °F 35.7 °F 38.5 °F 84% 29.56 in 10.0 mi SW 15.0 mph 28.8 mph N/A Rain Light Rain
2:55 PM 43.0 °F 35.7 °F 39.0 °F 86% 29.57 in 10.0 mi WSW 15.0 mph 20.7 mph 0.01 in   Light Drizzle
3:15 PM 43.5 °F 35.5 °F 39.4 °F 85% 29.58 in 10.0 mi WSW 18.4 mph 24.2 mph N/A   Drizzle
3:35 PM 43.5 °F 35.0 °F 39.6 °F 86% 29.59 in 10.0 mi SW 20.7 mph 26.5 mph N/A   Drizzle
3:55 PM 43.3 °F 35.8 °F 39.0 °F 85% 29.60 in 10.0 mi WSW 16.1 mph 26.5 mph 0.01 in Rain Light Rain
4:15 PM 43.5 °F 37.5 °F 39.2 °F 85% 29.62 in 10.0 mi SW 11.5 mph 20.7 mph N/A   Light Drizzle
4:35 PM 43.5 °F 36.1 °F 39.2 °F 85% 29.64 in 10.0 mi SW 16.1 mph 26.5 mph N/A Rain Light Rain
4:55 PM 43.7 °F 36.9 °F 39.4 °F 85% 29.65 in 10.0 mi WSW 13.8 mph 28.8 mph N/A Rain Light Rain
5:15 PM 43.2 °F 36.6 °F 39.4 °F 86% 29.66 in 10.0 mi WSW 12.7 mph 25.3 mph N/A Rain Light Rain
5:35 PM 43.2 °F 35.9 °F 39.4 °F 86% 29.68 in 10.0 mi SW 15.0 mph 25.3 mph N/A Rain Light Rain
5:55 PM 43.2 °F 35.9 °F 39.2 °F 86% 29.69 in 10.0 mi WSW 15.0 mph 23.0 mph N/A   Light Drizzle
6:35 PM 43.3 °F 35.5 °F 39.2 °F 85% 29.72 in 10.0 mi WSW 17.3 mph 27.6 mph 0.01 in   Light Drizzle
6:55 PM 43.3 °F 36.5 °F 39.2 °F 85% 29.74 in 10.0 mi WSW 13.8 mph 24.2 mph 0.01 in Rain Light Rain
7:15 PM 43.2 °F 35.3 °F 39.6 °F 87% 29.75 in 10.0 mi WSW 17.3 mph 25.3 mph N/A Rain Light Rain
7:35 PM 43.0 °F 34.8 °F 39.6 °F 88% 29.76 in 10.0 mi WSW 18.4 mph 26.5 mph N/A   Light Drizzle
8:15 PM 43.2 °F 35.6 °F 39.7 °F 88% 29.79 in 10.0 mi WSW 16.1 mph 23.0 mph N/A   Light Drizzle
8:35 PM 43.0 °F 35.7 °F 39.6 °F 88% 29.81 in 7.0 mi WSW 15.0 mph 24.2 mph N/A   Light Drizzle
9:15 PM 42.4 °F 35.7 °F 39.4 °F 89% 29.83 in 7.0 mi WSW 12.7 mph 20.7 mph N/A   Overcast
9:35 PM 42.4 °F 35.0 °F 39.4 °F 89% 29.84 in 7.0 mi WSW 15.0 mph 20.7 mph 0.01 in   Overcast
9:55 PM 42.3 °F 34.8 °F 39.4 °F 90% 29.85 in 5.0 mi SW 15.0 mph 20.7 mph 0.01 in Rain Light Rain
10:15 PM 42.3 °F 34.8 °F 39.6 °F 90% 29.86 in 7.0 mi WSW 15.0 mph 19.6 mph N/A   Light Drizzle
10:35 PM 42.3 °F 35.1 °F 39.4 °F 90% 29.87 in 10.0 mi WSW 13.8 mph 23.0 mph N/A Rain Light Rain
10:55 PM 42.3 °F 34.8 °F 39.4 °F 90% 29.87 in 10.0 mi WSW 15.0 mph 19.6 mph N/A   Light Drizzle
11:15 PM 42.1 °F 34.5 °F 39.2 °F 90% 29.88 in 10.0 mi WSW 15.0 mph 19.6 mph 0.01 in   Overcast
11:35 PM 42.3 °F 35.1 °F 39.4 °F 90% 29.89 in 10.0 mi WSW 13.8 mph 19.6 mph 0.01 in Rain Light Rain
11:55 PM 42.4 °F 35.7 °F 39.4 °F 89% 29.89 in 10.0 mi WSW 12.7 mph 18.4 mph 0.01 in   Overcast